Regional Weather Roundup
Issued by NWS

Home | Current Version | Previous Version | Text Only | Print | Product List | Glossary Off
Versions: 1 2 3 4 5 6 7 8 9 10 11 12 13 14 15 16 17 18 19 20 21 22 23 24 25 26 27 28 29 30 31 32 33 34 35 36 37 38 39 40 41 42 43 44 45 46 47 48 49 50

092
ASUS43 KOAX 082110
RWRNE

WEATHER ROUNDUP FOR NEBRASKA
NATIONAL WEATHER SERVICE OMAHA NE
300 PM CST MON FEB 08 2016

NOTES: SATELLITE DATA IS BEING USED TO AUGMENT CLOUD COVER ABOVE
       12000 FEET.
       "FAIR" INDICATES FEW OR NO CLOUDS BELOW 12,000 FEET WITH NO
       SIGNIFICANT WEATHER AND/OR OBSTRUCTIONS TO VISIBILITY.

  * THESE STATIONS DO NOT REPORT WEATHER SUCH AS RAIN...SNOW OR FOG.

NEZ001>004-019>022-054>056-082200-
NEBRASKA PANHANDLE

CITY           SKY/WX    TMP DP  RH WIND       PRES   REMARKS
SCOTTSBLUFF    CLOUDY    42  25  50 NW17      30.30F
ALLIANCE       CLOUDY    35  20  54 NW16      30.27F WCI  25
CHADRON        CLOUDY    40  16  37 NW15      30.31F WCI  32
KIMBALL        CLOUDY    40  26  59 NW13G22   30.28F WCI  32
SIDNEY         CLOUDY    38  26  62 NW16      30.28F WCI  29
$$

NEZ057>060-069>072-079>082-082200-
SOUTHWEST NEBRASKA

CITY           SKY/WX    TMP DP  RH WIND       PRES   REMARKS
NORTH PLATTE   CLOUDY    36  13  38 NW24G31   30.25F WCI  24
IMPERIAL       SUNNY     37  17  44 NW18G26   30.28F WCI  27
LEXINGTON      CLOUDY    36  17  45 NW25G32   30.22F WCI  24
MCCOOK         CLOUDY    36  18  48 NW21G32   30.27F WCI  25
OGALLALA       SUNNY     37  16  41 NW21      30.27F WCI  27
$$

NEZ005>010-023>029-035>040-094-082200-
NORTH CENTRAL NEBRASKA

CITY           SKY/WX    TMP DP  RH WIND       PRES   REMARKS
VALENTINE      CLOUDY    35  16  45 NW21G30   30.24F WCI  24
AINSWORTH      CLOUDY    35  15  43 NW25G36   30.22S WCI  22
BROKEN BOW     MOSUNNY   35  14  42 NW29G39   30.20S WCI  22
O`NEILL        MOSUNNY   33  19  55 NW28G40   30.18R WCI  20
ORD            MOSUNNY   36  17  46 NW28G39   30.17S WCI  23
THEDFORD       CLOUDY    39  13  34 NW24G35   30.23S WCI  28
$$

NEZ041-046>049-061>064-073>077-083>087-082200-
SOUTH CENTRAL NEBRASKA

CITY           SKY/WX    TMP DP  RH WIND       PRES   REMARKS
GRAND ISLAND   SUNNY     35  17  47 NW25G39   30.17S WCI  23
AURORA         SUNNY     35  21  57 N26G35    30.15S WCI  22
HASTINGS       SUNNY     36  19  50 NW23G39   30.17S WCI  24
HEBRON         SUNNY     36  22  56 NW23G30   30.16S WCI  24
HOLDREGE       CLOUDY    34  18  51 NW16G23   30.21F WCI  24
YORK           SUNNY     34  23  64 NW30G40   30.12F WCI  20
$$

NEZ011>018-030>034-042>045-082200-
NORTHEAST NEBRASKA

CITY           SKY/WX    TMP DP  RH WIND       PRES   REMARKS
NORFOLK        SUNNY     33  17  51 NW33G46   30.09S WCI  18
ALBION         MOSUNNY   33  20  57 NW31G37   30.13R WCI  19
BLAIR          PTSUNNY   30  20  66 NW23G39   30.07S WCI  17
COLUMBUS *     SUNNY     34  14  44 NW21G32   30.12R WCI  22
FREMONT        SUNNY     31  19  62 NW23G32   30.11S WCI  18
TEKAMAH        MOSUNNY   31  17  56 N29G40    30.10S WCI  16
WAYNE          MOSUNNY   31  20  63 NW26G32   30.10S WCI  17
$$

NEZ050>053-065>068-078-088>093-082200-
SOUTHEAST NEBRASKA

CITY           SKY/WX    TMP DP  RH WIND       PRES   REMARKS
LINCOLN        SUNNY     34  18  52 N24G32    30.13S WCI  21
OMAHA EPPLEY   PTSUNNY   29  18  63 N26G44    30.08S WCI  14
BEATRICE       SUNNY     34  19  54 N33G40    30.13S WCI  20
FALLS CITY     CLOUDY    33  19  56 N22G31    30.09R WCI  21
NEBRASKA CITY  CLOUDY    31  19  60 N29       30.08S WCI  17
PLATTSMOUTH    CLOUDY    29  19  65 NW22G35   30.08R WCI  15
$$

NEZ044-045-051>053-067-082200-
OMAHA AREA

CITY           SKY/WX    TMP DP  RH WIND       PRES   REMARKS
OMAHA EPPLEY   PTSUNNY   29  18  63 N26G44    30.08S WCI  14
BLAIR          PTSUNNY   30  20  66 NW23G39   30.07S WCI  17
FREMONT        SUNNY     31  19  62 NW23G32   30.11S WCI  18
MILLARD        CLOUDY    32  20  60 NW17G30   30.09S WCI  21
OFFUTT AFB     CLOUDY    29  17  59 NW24G40   30.08S WCI  15
PLATTSMOUTH    CLOUDY    29  19  65 NW22G35   30.08R WCI  15
WAHOO          FAIR      31  19  61 N31G38    30.09F WCI  17
$$




USA.gov is the U.S. government's official web portal to all federal, state and local government web resources and services.